Starlink 32221

operational
NORAD ID: 60342 Int'l Des: 2024-136 Owner: SPXS Country: US Constellation: starlink
LEOCIRCULAR

Über Starlink 32221

Beschreibung wird geladen...

Live-Position

3D-Globus wird geladen...

Nächste Überflüge

Höhenverlauf

Altitude vs Time

uPlot chart will show altitude changes over time

Zweizeiliger Elementsatz

1 60342U 24136P 25260.98685872 .00003031 00000-0 11447-3 0 9996
2 60342 53.1587 157.8048 0001477 45.8311 314.2810 15.30184703 63224
Epoch: 17. Sept. 2025 • Age: 22 hours

Aktueller Status

Höhe 474.6 km
Geschwindigkeit 7.63 km/s
Subsatellitenpunkt 17.70°N, 156.68°W
Startdatum 2. Aug. 2024
Alter 1.1 years
Typ internet

Technische Details

Klassifizierung Payload
Masse 730.00 kg
Trockenmasse 700.00 kg
Gesamtmasse 730.00 kg
Länge 0.30 m
Durchmesser 4.10 m
Spannweite 29.00 m
Form Box + pan
Hersteller SPXS
Bus-Typ Starlink V2M
Phasenstatus In Orbit
Besitzer/Staat SPXS/US

Große Konstellationen

Loading constellations...